Regional Weather Roundup
Issued by NWS

Home | Current Version | Previous Version | Graphics & Text | Print | Product List | Glossary Off
Versions: 1 2 3 4 5 6 7 8 9 10 11 12 13 14 15 16 17 18 19 20 21 22 23 24 25 26 27 28 29 30 31 32 33 34 35 36 37 38 39 40 41 42 43 44 45 46 47 48 49 50

000
ASUS43 KMKX 200520
RWRWI

WISCONSIN REGIONAL WEATHER ROUNDUP
NATIONAL WEATHER SERVICE MILWAUKEE/SULLIVAN WI
1100 PM CST FRI JAN 19 2018

NOTE: "FAIR" INDICATES FEW OR NO CLOUDS BELOW 12,000 FEET WITH NO
SIGNIFICANT WEATHER AND/OR OBSTRUCTIONS TO VISIBILITY.

WIZ001-002-006>008-014>016-023>028-200600-
NORTHWEST WISCONSIN

CITY           SKY/WX    TMP DP  RH WIND       PRES   REMARKS
SUPERIOR ARPT  FAIR      38  30  71 W16       29.61R WCI  29
ASHLAND        FAIR      37  27  67 SW13      29.59R WCI  29
HAYWARD        FAIR      26  23  88 S3        29.63R
SIREN          FAIR      35  28  76 W5        29.65R WCI  31
CUMBERLAND     FAIR      30  27  86 W3        29.64R
RICE LAKE      FAIR      32  29  90 W3        29.66R
CHETEK         FAIR      23  23 100 CALM      29.64R
LADYSMITH      FAIR      28  25  87 CALM      29.64R
EAU CLAIRE     FAIR      34  29  82 W3        29.65R
MENOMONIE      FAIR      30  27  90 CALM      29.66R
NEW RICHMOND   FAIR      30  28  92 CALM      29.66R
OSCEOLA        FAIR      25  25 100 CALM      29.69R
$$

WIZ003>005-009-010-017-018-200600-
NORTH CENTRAL WISCONSIN

CITY           SKY/WX    TMP DP  RH WIND       PRES   REMARKS
MANITOWISH WTR FAIR      31  26  81 W8        29.58R WCI  24
ARBOR VITAE    FAIR      34  28  79 W7        29.57R WCI  28
WOODRUFF       FAIR      34  28  79 W7        29.57R WCI  28
RHINELANDER    FAIR      32  26  78 W12       29.58R WCI  23
EAGLE RIVER    FAIR      32  24  74 W7        29.56R WCI  25
LAND O LAKES   FAIR      32  26  79 W6        29.57R WCI  26
PHILLIPS       FAIR      28  26  89 CALM      29.61R
TOMAHAWK       FAIR      32  26  78 W5        29.60R WCI  27
MEDFORD        FAIR      32  27  83 W7        29.62R WCI  26
MERRILL        FAIR      33  28  83 W7        29.61S WCI  26
$$

WIZ029-030-035-036-043>047-200600-
CENTRAL WISCONSIN

CITY           SKY/WX    TMP DP  RH WIND       PRES   REMARKS
WAUSAU         FAIR      35  28  75 NW8       29.61R WCI  29
MOSINEE        NOT AVBL
MARSHFIELD     FAIR      33  28  81 W6        29.63R WCI  28
STEVENS POINT  FAIR      34  27  76 W5        29.64R WCI  30
WAUPACA        FAIR      38  28  67 SW7       29.64R WCI  33
WAUTOMA        FAIR      34  25  69 SW5       29.66R WCI  30
WISC RAPIDS    FAIR      36  26  67 W6        29.66R WCI  31
CAMP DOUGLAS   FAIR      35  29  78 SW6       29.66R WCI  30
$$

WIZ011>013-019>022-031-037>040-048>050-200600-
NORTHEAST WISCONSIN

CITY           SKY/WX    TMP DP  RH WIND       PRES   REMARKS
ANTIGO         FAIR      32  27  81 W8        29.59R WCI  25
SHAWANO        FAIR      38  28  68 W7        29.61R WCI  33
OCONTO         FAIR      37  28  69 W14       29.58R WCI  28
STURGEON BAY   FAIR      37  27  67 W15         N/A  WCI  28
GREEN BAY      FAIR      37  27  67 SW7       29.61R WCI  32
MANITOWOC      FAIR      38  27  64 W9G18     29.64R WCI  31
APPLETON       PTCLDY    36  25  64 W14       29.61R WCI  27
CLINTONVILLE   FAIR      36  28  75 W7        29.62R WCI  30
OSHKOSH        FAIR      36  27  69 SW7       29.64R WCI  30
$$

WIZ032>034-041-042-053>061-200600-
SOUTHWEST WISCONSIN

CITY           SKY/WX    TMP DP  RH WIND       PRES   REMARKS
LA CROSSE      FAIR      37  29  72 S7        29.68R WCI  32
SPARTA         FAIR      32  29  86 CALM      29.69R
VIROQUA        FAIR      35  31  86 SW8       29.68S WCI  29
BOSCOBEL       FAIR      37  28  70 SW5       29.72R WCI  33
PRAIRIE DU CHI FAIR      38  27  65 SW5       29.73R WCI  35
PLATTEVILLE    FAIR      36  30  79 SW14      29.73R WCI  27
$$

WIZ056-057-062-063-064-067-068-200600-
SOUTH CENTRAL WISCONSIN

CITY           SKY/WX    TMP DP  RH WIND       PRES   REMARKS
REEDSBURG      FAIR      37  28  72 W7        29.69R WCI  31
BARABOO/DELLS  FAIR      36  27  69 SW6       29.68R WCI  31
LONE ROCK      FAIR      35  27  72 W6        29.71R WCI  30
MINERAL POINT  FAIR      37  32  81 SW10      29.71R WCI  30
MADISON        MOCLDY    36  27  69 SW5       29.71R WCI  32
MIDDLETON      FAIR      39  28  66 SW10      29.70R WCI  32
WATERTOWN      FAIR      35  29  79 SW8       29.69R WCI  29
MONROE         FAIR      36  28  75 SW16      29.71R WCI  26
JANESVILLE     FAIR      37  30  75 SW10      29.72S WCI  30
$$

WIZ051-052-058>065-066-070>072-200600-
SOUTHEAST WISCONSIN

CITY           SKY/WX    TMP DP  RH WIND       PRES   REMARKS
MILWAUKEE      FAIR      42  28  57 SW14G23   29.69R
WAUKESHA       FAIR      36  28  75 SW17G23   29.70S WCI  25
MILWAUKEE/TIMM FAIR      37  27  65 SW13G21   29.69S WCI  29
RACINE         FAIR      41  28  60 SW14G31   29.72R
BURLINGTON     FAIR      39  28  63 SW13      29.72R WCI  32
KENOSHA        FAIR      41  27  57 SW21G32   29.71R
FOND DU LAC    FAIR      36  26  67 SW9       29.66R WCI  29
SHEBOYGAN      FAIR      38  29  70 W17       29.64R WCI  28
WEST BEND      FAIR      36  28  75 SW14      29.66R WCI  27
JUNEAU         FAIR      34  27  76 SW10      29.69R WCI  26
$$

LSZ147-162-200600-
LAKE SUPERIOR

STATION/POSITION TIME  TEMP    WIND        PRES    WAVE
                       AIR SEA DIR/SP/G            HT/PER
                 (UTC) (F)     (DEG/KT/KT) (MB)    (FT/S)
DEVILS ISLAND    0500   36     250/ 19/ 22 1001.5R
SAXON HARBOR     0430   40     210/  9/ 14 1001.4R
$$

LMZ867-665-643>646-200600-
LAKE MICHIGAN

STATION/POSITION TIME  TEMP    WIND        PRES    WAVE
                       AIR SEA DIR/SP/G            HT/PER
                 (UTC) (F)     (DEG/KT/KT) (MB)    (FT/S)
NORTHPORT PIER   0440   37     250/  5/ 10 1000.0R
KEWAUNEE LAKESHO 0454   39     260/ 15/ 21 1001.6R
SHEBOYGAN LAKESH 0500   39     240/ 12/ 14 1004.5R
PORT WASHINGTON  0440   41     250/  8/ 15 1005.8R
MILWAUKEE LAKESH 0500   43     250/ 16/ 21   N/A
KENOSHA   LAKESH 0500   43     240/ 15/ 21 1006.8
$$

TC  - TEMPERATURE IN CELSIUS
VSB - VISIBILITY IN STATUTE MILES
WCI - WIND CHILL INDEX
HX  - HEAT INDEX




USA.gov is the U.S. government's official web portal to all federal, state and local government web resources and services.